SL-8 R/B

Satellite information

Favourite Embed

Satellite Type and Status

ROCKET BODYIN ORBIT

Key statistics

Satellite SL-8 R/B at a glance.

Uptime

16349

Days in orbit

Revolutions

≈ 13.8

Per day

Orbit

LEO

Low Earth Orbit

Inclination

82.9

Latest

Satellite identification and parameters

Extended collection of information and parameters for SL-8 R/B.

Object identification

Identified? True

Debris? False

Object name: SL-8 R/B

International designator: 1980-097B

Object number (NORAD): 12088

Object ID (CCSDS): 12088

Country: COMMONWEALTH OF INDEPENDENT STATES (CIS)

Current information (Y/N): Y

RCS size: LARGE

Orbital parameters

Period: 104.553 minutes

Inclination: 82.9378 deg

SMA: 7351.635 km

Apoapsis: 1008.462 km

Periapsis: 938.537 km

RAAN: 268.1808 deg

Eccentricy: 0.00475576

Argument of periapsis: 294.5572 deg

Mean anomaly: 65.0632 deg

Mean motion: 13.77294778 rev/day

Mean motion (dot): -0.0000001 rev/day2

B* drag term: -0.000024567731 1/REarth

Two-line elements (TLE)

Creation date: Sept. 8, 2025, 6:18 p.m.

Reference frame: TEME

Reference center: EARTH

Epoch: Sept. 8, 2025, 12:34 p.m. UTC

TLE line 0: 0 SL-8 R/B

TLE line 1: 1 12088U 80097B 25251.52424430 -.00000010 00000-0 -24568-4 0 9994

TLE line 2: 2 12088 82.9378 268.1808 0047558 294.5572 65.0632 13.77294778248623

Live tracking on map

Real-time ground track for satellite SL-8 R/B.

In-orbit conjunctions

A list of the most updated potential collisions computed for object SL-8 R/B.

Target Orbit TCA Probability of collision Miss distance Type
SL-14 R/B LEO 2025-05-17 03:45:52 0.0001029715 202.0 (m) ROCKET BODY
COSMOS 1275 DEB LEO 2025-02-17 17:21:19 0.000802763 110.0 (m) DEBRIS
CZ-4 DEB SSO 2024-10-28 10:15:37 0.0001230408 498.0 (m) DEBRIS

Associated space launch

Navigation satellite providing location information for the Tsiklon-B navigation system

SL-8 R/B was lifted into orbit during the mission ‘Kosmos-3M | Parus 25’, on board a Kosmos-3M space rocket.

The launch took place on Dec. 5, 1980, 4:23 a.m. from 132/1 (132L).

For more information about the launch, click the button.

Launch to space Kosmos-3M | Parus 25
Kosmos-3M | Parus 25

Agency: N/A

Status: Launch Successful

Launch date: Dec. 5, 1980, 4:23 a.m. UTC

Rocket: Kosmos-3M

Launch pad: 132/1 (132L)

Location: Plesetsk Cosmodrome, Russian Federation

...

Latest news about this satellite

There are no fresh news available about this satellite. Check back as we update our databases every day.


Newsletter sign-up

Weekly statistics, charts and insights to help you stay on top of the space industry.